Location: Newark
(48.1500°N, 13.1167°E)
Time: 07:15:57
(UTC+00:00)

KAITUO 1B - Pass Details

Date: 05 December 2021
Orbit: 486 x 507 km, 97.4° (Epoch: 18 January)

Event Time Altitude Azimuth Distance (km) Brightness Sun altitude
Rises 04:27:06 0° 33° (NNE) 2,628 ? -21.5°
Reaches altitude 10° 04:30:34 10° 68° (ENE) 1,730 ? -21.0°
Maximum altitude 04:31:53 12° 88° (E) 1,629 ? -20.7°
Drops below altitude 10° 04:33:11 10° 109° (ESE) 1,720 ? -20.5°
Sets 04:36:35 0° 144° (SE) 2,591 ? -20.0°
